Weather History for Corsicana, TX

Change the Weather History Date:

Thursday, November 1, 2012

  Actual Average (KACT) Record (KACT)
Temperature  
Mean Temperature 68 °F 63 °F  
Max Temperature 87 °F 74 °F 91 °F (1955)
Min Temperature 51 °F 52 °F 31 °F (1991)
Degree Days  
Heating Degree Days 0 5  
Month to date heating degree days 5  
Since 1 July heating degree days 72  
Cooling Degree Days 4 3  
Month to date cooling degree days 3  
Year to date cooling degree days 2759  
Growing Degree Days 18 (Base 50)    
Moisture  
Dew Point 51 °F    
Average Humidity 59    
Maximum Humidity 86    
Minimum Humidity 27    
Precipitation  
Precipitation 0.00 in 0.11 in 1.41 in (1984)
Month to date precipitation 0.11  
Year to date precipitation 29.23  
Snow  
Snow 0.00 in 0.00 in 0.00 in ()
Month to date snowfall 0.0  
Since 1 July snowfall 0.0  
Since 1 September snowfall 0.0  
Snow Depth -    
Sea Level Pressure  
Sea Level Pressure 30.00 in    
Wind  
Wind Speed 3 mph (SW)    
Max Wind Speed 8 mph    
Max Gust Speed -    
Visibility 10 miles    
Events      
T = Trace of Precipitation, MM = Missing Value Source: NWS Daily Summary

Daily Weather History Graph

Daily Weather History Graph

Search for Another Location

Airport:

Trip Planner

Search our weather history database for the weather conditions in past years. The results will help you decide how hot, cold, wet, or windy it might be!

Date:

Astronomy

Nov. 01, 2012 Rise Set
Actual Time 7:42 AM CDT 6:35 PM CDT
Civil Twilight 7:17 AM CDT 7:00 PM CDT
Nautical Twilight 6:48 AM CDT 7:29 PM CDT
Astronomical Twilight 6:19 AM CDT 7:57 PM CDT
Moon 8:40 PM CDT (11/1) 10:08 AM CDT (11/1)
Length of Visible Light 11h 43m
Length of Day
10h 52m
Waning Gibbous, 93% of the Moon is Illuminated
Nov 1
Waning Gibbous
Nov 6
Last Quarter
Nov 13
New
Nov 20
First Quarter
Nov 28
Full

Hourly Weather History & Observations

Time (CDT) Temp. Heat Index Dew Point Humidity Pressure Visibility Wind Dir Wind Speed Gust Speed Precip Events Conditions
12:53 AM 57.9 °F - 48.9 °F 72% 30.02 in 10.0 mi Calm Calm - N/A   Clear
1:53 AM 55.0 °F - 48.0 °F 77% 30.02 in 10.0 mi SW 3.5 mph - N/A   Clear
2:53 AM 55.9 °F - 48.0 °F 75% 30.01 in 10.0 mi SSW 5.8 mph - N/A   Clear
3:53 AM 54.0 °F - 48.0 °F 80% 30.01 in 10.0 mi SSW 4.6 mph - N/A   Clear
4:53 AM 53.1 °F - 46.9 °F 80% 30.00 in 10.0 mi SSW 4.6 mph - N/A   Clear
5:53 AM 51.1 °F - 46.0 °F 83% 30.01 in 10.0 mi SW 3.5 mph - N/A   Clear
6:53 AM 53.1 °F - 48.0 °F 83% 30.01 in 10.0 mi Calm Calm - N/A   Clear
7:53 AM 51.1 °F - 46.9 °F 86% 30.02 in 10.0 mi Calm Calm - N/A   Clear
8:53 AM 57.9 °F - 51.1 °F 78% 30.05 in 9.0 mi Calm Calm - N/A   Clear
9:53 AM 64.0 °F - 51.1 °F 63% 30.06 in 10.0 mi Calm Calm - N/A   Clear
10:53 AM 69.1 °F - 52.0 °F 54% 30.06 in 10.0 mi West 3.5 mph - N/A   Clear
11:53 AM 75.9 °F - 53.1 °F 45% 30.05 in 10.0 mi WNW 4.6 mph - N/A   Clear
12:53 PM 81.0 °F 80.7 °F 55.0 °F 41% 30.03 in 10.0 mi West 4.6 mph - N/A   Clear
1:53 PM 82.9 °F 82.0 °F 55.0 °F 38% 30.00 in 10.0 mi Variable 3.5 mph - N/A   Clear
2:53 PM 84.9 °F 83.2 °F 53.1 °F 33% 29.96 in 10.0 mi West 3.5 mph - N/A   Clear
3:53 PM 86.0 °F - 51.1 °F 30% 29.95 in 10.0 mi SW 6.9 mph - N/A   Clear
4:53 PM 86.0 °F - 48.0 °F 27% 29.94 in 10.0 mi WSW 5.8 mph - N/A   Clear
5:53 PM 82.9 °F - 48.9 °F 31% 29.94 in 10.0 mi SW 5.8 mph - N/A   Clear
6:53 PM 73.9 °F - 52.0 °F 46% 29.95 in 10.0 mi South 6.9 mph - N/A   Clear
7:53 PM 71.1 °F - 55.0 °F 57% 29.96 in 10.0 mi South 8.1 mph - N/A   Clear
8:53 PM 70.0 °F - 54.0 °F 57% 29.97 in 10.0 mi South 6.9 mph - N/A   Clear
9:53 PM 68.0 °F - 54.0 °F 61% 29.97 in 10.0 mi South 6.9 mph - N/A   Clear
10:53 PM 69.1 °F - 54.0 °F 58% 29.98 in 10.0 mi SSW 6.9 mph - N/A   Clear
11:53 PM 68.0 °F - 54.0 °F 61% 29.97 in 10.0 mi SSW 6.9 mph - N/A   Clear